Wind_Speed
28 30 31 32 33 34 34 35 35 35 36 37 37 36 36 35 35 35 34 35 36 37 39 39 38 39 40 40 42 42 41 41 40 38 36 34 32 32 33 33 32 31 32
30 32 32 32 33 34 35 35 36 36 37 37 37 36 35 35 34 34 34 34 34 35 36 37 38 39 39 40 40 40 41 40 41 38 35 33 32 32 32 32 31 32 33
32 34 33 33 34 35 36 36 36 36 36 36 36 35 34 34 34 33 33 33 34 34 35 36 37 38 38 39 39 40 40 39 39 38 37 35 33 32 31 31 31 31 31
34 33 32 33 34 36 36 36 35 35 35 35 34 33 33 32 32 33 33 34 34 34 35 36 37 38 38 38 38 38 39 39 38 38 37 35 33 31 30 31 32 32 31
31 31 30 31 33 34 35 35 34 33 33 32 32 32 31 32 32 33 33 34 34 34 35 36 37 38 38 39 39 38 38 38 38 37 36 36 34 32 31 31 31 32 32
28 28 29 30 32 33 33 33 32 32 32 32 31 31 31 31 32 32 33 34 35 35 36 36 37 38 39 39 39 39 39 38 38 38 37 36 35 34 33 33 32 33 33
26 27 28 30 31 31 31 31 31 31 31 31 31 31 31 32 32 33 33 34 34 35 36 37 37 38 39 39 39 39 39 39 39 38 37 37 37 36 35 34 34 34 34
26 27 28 28 29 30 30 30 30 31 31 31 31 31 32 32 33 33 34 34 35 35 36 36 37 38 39 39 39 39 39 40 39 38 38 38 36 36 35 36 35 34 34
26 27 28 29 29 30 30 30 31 31 32 32 32 32 33 33 34 34 35 35 35 35 36 36 37 37 38 39 39 39 39 39 39 39 39 38 37 37 37 37 36 35 35
28 29 30 30 31 32 32 32 33 34 34 35 35 35 35 35 36 36 36 36 36 36 36 36 36 36 37 38 38 39 40 40 39 39 39 38 37 37 37 37 37 36 36
31 32 33 34 35 35 36 36 37 37 38 38 38 39 39 38 38 38 38 37 37 36 36 36 36 36 36 36 36 37 38 38 38 38 38 37 36 36 36 36 35 34 35
35 36 37 39 40 41 42 42 42 42 42 42 42 42 42 41 41 40 40 39 37 37 37 37 36 35 35 35 35 34 35 35 36 35 35 35 35 34 34 34 33 33 33
38 40 42 44 45 46 47 47 47 47 46 46 45 45 44 43 43 42 41 40 38 37 37 36 35 34 33 33 33 32 31 31 31 30 31 31 31 32 32 32 32 32 32
43 45 47 49 50 51 52 52 52 52 51 50 49 47 46 45 44 43 42 41 39 38 37 36 35 33 32 31 29 28 27 26 26 26 26 27 27 28 29 29 29 29 29
47 49 51 53 54 55 56 57 57 56 55 54 52 50 49 48 46 45 43 42 40 38 36 35 34 32 31 29 28 26 24 23 23 22 23 23 23 23 24 24 23 25 27
52 54 56 58 59 60 61 60 60 60 59 57 55 54 53 50 48 46 44 42 40 38 36 35 33 31 29 27 26 24 22 20 19 18 17 18 20 20 20 21 21 22 23
57 59 61 62 64 65 65 65 64 64 63 61 59 57 55 53 50 48 45 42 40 38 35 34 31 29 27 26 24 21 20 18 17 15 15 16 17 18 18 19 19 20 20
62 64 66 68 69 70 70 69 68 67 65 64 62 60 57 54 51 49 45 42 40 38 35 32 29 28 26 23 20 19 18 16 15 15 14 14 15 15 16 16 17 19 19
69 70 72 73 73 73 73 71 70 69 67 65 62 59 56 53 49 47 44 41 39 37 35 31 28 25 23 21 19 17 16 15 14 14 13 14 14 15 16 17 17 19 18
72 73 74 75 75 74 73 71 69 66 63 60 57 55 52 49 46 44 42 40 38 37 35 32 28 25 22 20 18 16 14 14 13 13 14 14 15 16 17 16 17 18 16
75 75 74 74 73 71 69 66 63 60 57 55 53 51 48 46 44 42 41 40 38 36 35 32 28 24 21 18 16 15 13 12 12 12 13 13 14 14 14 14 14 13 13
75 74 72 70 66 64 61 58 55 53 51 50 48 46 45 43 42 41 41 40 40 36 35 32 27 25 22 18 16 15 13 12 12 12 12 13 13 13 13 13 13 12 12
70 67 64 61 57 54 52 49 47 46 44 43 42 41 41 40 40 41 41 40 39 38 35 31 28 25 22 19 17 15 14 13 13 13 13 13 14 14 14 13 13 13 12
59 57 55 52 48 45 43 42 40 39 39 39 39 38 38 38 38 39 40 41 39 37 35 32 29 25 23 20 18 16 15 14 13 14 15 14 14 14 14 13 13 12 11
50 48 46 43 40 39 38 38 39 39 38 38 36 36 35 35 35 37 38 39 40 37 34 33 30 27 24 22 19 17 16 15 15 16 16 16 15 14 14 14 13 11 10
44 42 41 39 37 37 37 38 38 38 37 36 35 34 31 31 32 34 37 38 38 38 34 34 31 28 26 24 21 19 18 17 17 17 17 16 16 15 14 13 12 11 10
Wind_Direction
289 292 293 292 292 293 293 296 298 300 301 303 303 303 302 301 299 297 294 291 288 285 282 280 279 277 275 276 276 275 277 280 280 277 273 269 266 263 262 261 263 264 262
288 290 291 289 290 292 295 297 300 302 304 306 306 306 305 304 302 299 296 293 289 286 284 281 279 278 277 276 276 276 277 279 280 279 277 273 269 269 263 260 260 261 261
286 287 287 287 289 292 295 298 301 303 305 307 307 308 307 306 304 301 299 295 291 288 285 283 281 280 278 277 277 276 276 276 277 277 277 277 275 269 265 261 261 262 262
283 284 285 286 289 293 295 298 301 303 305 307 308 309 309 308 306 303 301 298 294 291 287 284 282 281 279 278 277 276 276 276 277 276 276 276 275 271 265 262 262 263 263
280 280 283 286 288 291 295 297 301 303 305 307 308 309 310 310 309 307 305 301 298 295 291 287 284 282 280 279 277 276 275 275 276 277 276 276 274 272 268 262 261 262 263
277 279 282 285 287 289 292 295 298 300 303 304 306 308 309 310 310 310 308 305 301 297 294 291 287 283 281 279 277 275 275 275 275 275 274 274 273 271 269 266 263 261 260
277 279 281 283 284 285 288 291 295 298 300 303 304 306 307 308 310 311 310 308 304 300 297 293 290 285 282 279 277 275 274 274 274 274 273 272 271 269 268 266 264 262 259
280 281 281 281 282 283 287 291 294 297 299 300 302 304 305 307 309 310 310 309 306 303 300 296 292 287 283 280 277 275 273 273 272 271 271 270 268 268 266 264 263 262 259
281 279 280 281 283 286 290 292 294 296 298 300 302 303 305 306 308 309 309 309 308 305 302 299 295 290 285 282 278 275 273 272 271 269 269 268 266 265 265 263 261 260 257
283 282 284 286 288 290 293 295 296 298 299 301 302 304 304 305 306 307 308 308 308 306 303 301 297 293 289 285 280 277 274 272 270 268 268 267 264 263 262 260 258 256 254
287 288 290 291 293 295 297 298 299 300 301 302 303 304 304 304 305 305 306 306 306 306 304 302 299 295 291 288 284 280 276 272 270 268 266 265 264 261 260 258 255 253 252
291 292 294 296 298 299 299 300 300 301 301 301 301 302 302 302 303 304 304 304 305 305 304 303 301 298 294 291 288 283 277 273 270 268 265 262 261 259 256 253 250 249 248
292 294 295 296 298 298 299 299 300 299 299 299 299 299 299 299 299 300 301 301 302 303 304 303 301 300 297 293 291 287 279 275 270 267 264 260 257 255 253 250 247 245 243
293 294 295 295 296 297 297 297 297 297 297 296 296 296 296 296 296 297 298 298 299 300 301 301 301 300 298 295 293 290 282 276 270 267 263 258 255 251 248 246 244 241 238
291 292 292 293 293 294 294 294 294 294 294 294 294 293 293 293 293 293 295 295 295 297 298 298 299 299 298 295 293 292 285 277 271 266 263 258 250 246 245 242 238 236 234
291 291 291 291 292 292 292 292 291 292 292 292 291 291 291 290 290 289 290 290 290 292 293 295 296 297 297 296 294 291 286 277 269 264 261 253 244 240 237 235 234 232 232
292 291 291 291 291 291 291 290 290 291 291 291 290 289 288 287 286 285 285 285 285 286 288 290 292 293 294 294 292 287 283 277 269 263 259 249 240 235 229 227 224 228 231
292 291 291 291 291 291 291 291 291 290 290 290 289 288 286 284 282 280 278 278 278 280 281 282 285 288 288 288 286 282 279 275 264 256 254 242 236 233 223 224 223 225 228
291 291 291 291 291 291 291 290 290 290 289 288 287 286 284 281 277 274 272 270 270 272 274 275 278 280 282 282 279 274 271 267 257 249 241 232 229 223 222 224 223 222 219
293 292 292 292 292 292 291 291 290 289 288 287 286 284 280 275 272 268 265 261 261 263 265 266 269 270 274 275 273 268 264 255 246 240 233 229 226 220 217 218 216 212 209
296 295 294 294 294 293 292 292 291 289 288 287 286 282 277 272 267 263 258 254 252 255 256 257 260 260 262 263 261 257 256 248 239 231 226 223 216 208 203 200 196 194 193
297 297 296 296 295 295 294 293 291 290 289 287 285 281 274 269 263 257 252 247 244 246 247 247 250 250 250 249 248 244 239 233 226 223 220 209 197 192 186 180 179 179 177
300 299 298 298 297 296 295 294 293 291 290 287 284 280 273 267 262 255 248 242 240 240 238 239 240 239 239 238 239 235 229 223 218 214 207 196 186 179 176 174 175 173 171
303 302 301 300 299 297 296 296 295 293 292 289 285 279 273 266 261 253 244 238 233 233 229 229 230 229 228 228 228 226 219 213 207 202 197 189 181 178 176 175 174 173 177
306 305 305 304 302 299 298 297 296 295 294 291 286 281 275 266 259 249 240 233 226 223 222 222 222 220 219 220 218 214 210 207 201 196 191 186 182 181 181 181 182 184 189
309 308 307 305 304 302 300 298 297 297 296 293 288 282 276 268 258 247 236 227 220 216 217 216 214 212 213 212 209 209 206 201 196 192 190 189 188 188 188 189 192 196 202
Height
5874 5872 5869 5866 5864 5861 5858 5855 5853 5851 5848 5846 5843 5840 5838 5835 5833 5831 5828 5826 5824 5822 5820 5819 5819 5817 5816 5816 5815 5813 5812 5811 5810 5809 5809 5810 5811 5812 5813 5814 5815 5816 5816
5868 5866 5863 5861 5858 5855 5852 5849 5846 5843 5840 5838 5835 5832 5829 5827 5825 5822 5820 5818 5816 5814 5812 5810 5809 5808 5807 5807 5806 5805 5804 5803 5801 5800 5800 5801 5803 5804 5804 5805 5806 5807 5808
5862 5860 5857 5854 5851 5848 5845 5842 5839 5836 5833 5830 5827 5824 5821 5818 5816 5814 5812 5810 5808 5806 5804 5802 5800 5799 5798 5797 5797 5796 5795 5794 5793 5792 5792 5792 5793 5794 5796 5797 5797 5798 5800
5856 5853 5851 5848 5845 5842 5839 5836 5833 5830 5827 5823 5820 5817 5814 5811 5809 5806 5803 5801 5799 5797 5795 5793 5791 5790 5789 5787 5787 5786 5785 5785 5785 5784 5783 5783 5784 5785 5787 5788 5789 5790 5791
5850 5848 5845 5842 5839 5836 5833 5830 5827 5823 5820 5817 5813 5810 5807 5804 5801 5798 5796 5793 5790 5787 5785 5783 5781 5780 5778 5777 5777 5776 5775 5775 5775 5775 5774 5774 5774 5776 5777 5779 5780 5781 5783
5844 5842 5839 5837 5833 5830 5827 5824 5821 5817 5814 5811 5807 5804 5801 5798 5794 5791 5788 5784 5781 5778 5776 5773 5771 5769 5768 5767 5766 5765 5765 5765 5764 5764 5764 5765 5765 5766 5767 5769 5771 5772 5773
5838 5835 5833 5830 5827 5824 5821 5818 5815 5811 5808 5804 5801 5797 5794 5791 5787 5784 5780 5777 5773 5769 5766 5763 5761 5759 5757 5756 5755 5754 5754 5754 5753 5754 5754 5754 5755 5757 5758 5759 5760 5762 5764
5831 5829 5826 5823 5820 5817 5814 5811 5808 5805 5801 5798 5794 5790 5787 5783 5780 5776 5772 5769 5765 5761 5757 5754 5751 5748 5746 5744 5743 5743 5742 5742 5742 5742 5743 5743 5744 5745 5747 5748 5750 5752 5754
5824 5821 5818 5816 5813 5810 5807 5803 5800 5797 5793 5790 5786 5783 5779 5775 5772 5768 5764 5760 5756 5752 5748 5744 5741 5738 5735 5733 5732 5731 5730 5730 5730 5731 5731 5732 5733 5734 5736 5737 5739 5742 5744
5816 5813 5810 5807 5804 5801 5798 5795 5792 5788 5785 5781 5777 5774 5770 5767 5763 5759 5755 5751 5747 5743 5739 5735 5731 5728 5725 5722 5720 5719 5718 5718 5718 5718 5719 5720 5721 5722 5724 5726 5728 5730 5733
5807 5804 5801 5798 5795 5792 5789 5785 5782 5779 5775 5772 5768 5764 5761 5757 5754 5750 5746 5742 5738 5734 5730 5725 5721 5718 5714 5711 5709 5707 5706 5706 5706 5706 5707 5708 5709 5711 5712 5714 5717 5719 5722
5798 5795 5791 5788 5784 5781 5778 5775 5771 5768 5765 5761 5758 5754 5751 5747 5744 5740 5737 5733 5729 5725 5720 5716 5712 5708 5705 5701 5699 5697 5695 5694 5694 5695 5695 5696 5698 5700 5701 5703 5706 5709 5712
5788 5785 5781 5777 5774 5770 5767 5763 5760 5757 5753 5750 5747 5744 5740 5737 5734 5730 5727 5723 5719 5715 5711 5707 5703 5699 5696 5692 5689 5686 5685 5684 5683 5684 5684 5686 5687 5689 5691 5694 5696 5699 5703
5778 5774 5770 5766 5762 5758 5754 5750 5747 5744 5741 5738 5735 5732 5729 5726 5723 5719 5716 5713 5710 5706 5702 5698 5695 5691 5687 5684 5681 5678 5676 5675 5675 5675 5675 5676 5678 5679 5682 5685 5688 5691 5694
5767 5763 5758 5754 5750 5746 5741 5737 5733 5730 5727 5724 5721 5718 5716 5713 5711 5708 5705 5702 5699 5696 5693 5690 5686 5683 5679 5676 5673 5671 5669 5667 5667 5667 5667 5669 5670 5672 5674 5677 5680 5684 5687
5754 5750 5744 5739 5735 5730 5726 5722 5718 5715 5711 5708 5706 5704 5701 5699 5697 5695 5694 5691 5689 5686 5684 5681 5678 5675 5672 5669 5667 5665 5663 5661 5661 5661 5661 5662 5663 5666 5668 5672 5675 5678 5681
5739 5734 5729 5723 5718 5713 5708 5704 5701 5697 5694 5691 5688 5686 5685 5684 5683 5681 5680 5679 5678 5676 5674 5672 5670 5668 5665 5663 5660 5659 5658 5657 5656 5656 5657 5658 5659 5661 5663 5666 5669 5672 5676
5723 5717 5711 5705 5699 5694 5689 5684 5681 5677 5674 5672 5669 5667 5666 5666 5666 5666 5666 5666 5665 5665 5664 5663 5661 5660 5658 5657 5655 5654 5653 5652 5652 5652 5653 5655 5656 5657 5660 5663 5666 5669 5671
5704 5697 5690 5684 5678 5672 5667 5663 5660 5656 5653 5651 5649 5647 5646 5646 5647 5648 5649 5651 5652 5653 5653 5653 5653 5652 5652 5651 5650 5649 5649 5649 5649 5649 5650 5652 5654 5655 5658 5660 5663 5665 5668
5685 5677 5669 5662 5656 5650 5644 5641 5637 5633 5631 5629 5627 5626 5625 5626 5628 5630 5633 5635 5638 5640 5642 5643 5644 5645 5645 5645 5645 5644 5644 5645 5645 5646 5647 5649 5651 5652 5655 5657 5660 5663 5666
5661 5653 5646 5639 5632 5626 5621 5618 5614 5611 5609 5607 5606 5605 5605 5607 5609 5613 5616 5620 5624 5627 5630 5633 5635 5636 5638 5639 5640 5640 5640 5641 5642 5643 5645 5646 5648 5650 5652 5655 5658 5661 5664
5638 5629 5622 5616 5610 5604 5599 5596 5593 5590 5587 5586 5585 5585 5585 5587 5591 5595 5599 5604 5609 5613 5618 5622 5625 5628 5631 5633 5634 5636 5637 5638 5640 5641 5643 5644 5646 5649 5651 5654 5657 5660 5663
5616 5608 5600 5595 5591 5585 5580 5578 5575 5572 5570 5568 5567 5567 5567 5569 5572 5576 5582 5587 5593 5600 5606 5611 5616 5620 5623 5626 5629 5631 5633 5635 5637 5639 5641 5643 5645 5648 5650 5653 5656 5659 5662
5596 5589 5583 5578 5574 5570 5566 5562 5560 5557 5554 5553 5551 5551 5551 5552 5555 5559 5565 5572 5579 5587 5594 5601 5607 5612 5616 5620 5623 5626 5629 5631 5634 5637 5639 5642 5644 5647 5650 5653 5656 5659 5662
5581 5575 5569 5564 5560 5557 5553 5550 5546 5543 5541 5539 5537 5536 5536 5537 5539 5544 5550 5558 5566 5575 5583 5591 5598 5604 5610 5614 5618 5621 5625 5628 5631 5634 5637 5640 5643 5647 5649 5652 5655 5658 5660
5569 5563 5558 5553 5549 5545 5542 5538 5534 5530 5528 5526 5524 5522 5522 5523 5525 5530 5537 5545 5554 5564 5572 5581 5589 5597 5602 5608 5613 5617 5621 5625 5629 5632 5635 5638 5642 5645 5648 5651 5653 5656 5658